Regional Weather Roundup
Issued by NWS Kansas City/Pleasant Hill, MO

Home | Current Version | Previous Version | Text Only | Print | Product List | Glossary On
Versions: 1 2 3 4 5 6 7 8 9 10 11 12 13 14 15 16 17 18 19 20 21 22 23 24 25 26 27 28
000
ASUS43 KEAX 250410
RWREAX

WEATHER ROUNDUP FOR EASTERN KANSAS AND NORTHWEST MISSOURI
NATIONAL WEATHER SERVICE KANSAS CITY/PLEASANT HILL MO
1100 PM CDT SAT SEP 24 2016

KSZ040-057-103>105-MOZ028-029-037-043-250500-
...KANSAS CITY METROPOLITAN AREA...

CITY           SKY/WX    TMP DP  RH WIND       PRES   REMARKS
K.C. INTL      CLOUDY    69  66  90 NE6       30.00S
K.C. DOWNTOWN  CLOUDY    74  67  78 N8        29.98S
LEES SUMMIT    CLOUDY    79  70  74 S10       30.00R
OLATHE - IXD   CLOUDY    72  68  87 NE6       29.99F
OLATHE - OJC   CLOUDY    75  68  78 N3        29.99S
LAWRENCE       TSTM      69  68  96 W13       30.04R VSB 3/4

$$

MOZ001>008-011>017-020>025-030>033-038>040-044>046-053-054-250500-
...NORTHERN AND CENTRAL MISSOURI...

CITY           SKY/WX    TMP DP  RH WIND       PRES   REMARKS
ST. JOSEPH     CLOUDY    69  68  96 E3        29.99S
MOSBY          CLOUDY    72  66  83 NW7       30.01R
WHITEMAN AFB   PTCLDY    77  72  86 S9        30.00R
CLINTON        PTCLDY    77  70  78 S7        30.01S
SEDALIA        CLOUDY    76  70  82 SE8       30.03R
WARSAW         NOT AVBL
CHILLICOTHE      N/A     78  71  79 SE5       30.01S
KIRKSVILLE     MOCLDY    74  68  81 S6        30.04S

$$

MOZ041-047>049-056>058-063>065-088>090-097-250500-
...EASTERN AND SOUTHERN MISSOURI...

CITY           SKY/WX    TMP DP  RH WIND       PRES   REMARKS
ST. LOUIS INTL CLEAR     81  67  62 SE7       30.05S
SPIRIT OF STL  CLEAR     71  70  96 CALM      30.04R
COLUMBIA       CLEAR     75  69  81 SE6       30.05R
JEFFERSON CITY CLEAR     75  70  84 E6        30.03R
ROLLA          CLEAR     73  68  84 SE7       30.06R
OSAGE BEACH    CLEAR     74  69  85 SE3       30.05S
SPRINGFIELD    CLEAR     76  67  73 SE8       30.04F
BRANSON        CLEAR     73  68  83 SE5       30.08S
JOPLIN         PTCLDY    77  68  73 SE10        N/A
WEST PLAINS    CLEAR     69  66  90 CALM      30.10S

$$

IAZ060-094-KSZ022-034>040-054-083-096-NEZ052-066-093-250500-
...KANSAS...SOUTHEAST NEBRASKA AND IOWA...

CITY           SKY/WX    TMP DP  RH WIND       PRES   REMARKS
TOPEKA         RAIN      68  67  96 NE6       29.99F FOG
MANHATTAN      CLOUDY    69  68  96 W7        29.99R
EMPORIA        LGT RAIN  67  66  97 SE9       30.00S
CHANUTE        LGT RAIN  69  66  90 NW8       30.02F
WICHITA        CLOUDY    67  67 100 SE8       29.97R
OMAHA          CLOUDY    71  67  87 S8        29.98R
LINCOLN        CLOUDY    69  68  96 S7        29.97S
FALLS CITY     HVY RAIN  70  70 100 S12       29.98F FOG
LAMONI         CLOUDY    70  68  93 S3        30.02F
DES MOINES     TSTM      70  68  93 S15G21    30.03R FOG

$$





USA.gov is the U.S. government's official web portal to all federal, state and local government web resources and services.